QPF
0.01 0.02 0.02 0.02 0.01 0.01 0.02 0.02 0.02 0.01 0.01 0.01 0.01 0.01 0.01 0.01 0.01 0.01 0.01 0.01 0.01 0.01 0.02 0.01 0.00 0.00 0.00 0.00 0.00 0.00 0.00 0.00 0.00 0.00 0.00 0.00 0.00 0.00 0.00 0.00 0.00 0.00 0.00 0.00
0.01 0.01 0.02 0.01 0.01 0.01 0.02 0.03 0.02 0.01 0.01 0.01 0.00 0.00 0.01 0.01 0.01 0.01 0.01 0.01 0.00 0.01 0.02 0.02 0.01 0.00 0.00 0.00 0.00 0.00 0.00 0.00 0.00 0.00 0.00 0.00 0.00 0.00 0.00 0.00 0.00 0.00 0.00 0.00
0.01 0.01 0.02 0.02 0.02 0.02 0.02 0.03 0.02 0.02 0.01 0.01 0.01 0.01 0.01 0.01 0.01 0.01 0.01 0.01 0.01 0.00 0.01 0.01 0.01 0.00 0.00 0.00 0.00 0.00 0.00 0.00 0.00 0.00 0.00 0.00 0.00 0.00 0.00 0.00 0.00 0.00 0.00 0.00
0.01 0.02 0.03 0.02 0.01 0.02 0.02 0.02 0.01 0.02 0.01 0.01 0.01 0.01 0.01 0.01 0.01 0.01 0.01 0.01 0.01 0.00 0.00 0.00 0.01 0.01 0.00 0.00 0.00 0.00 0.00 0.00 0.00 0.00 0.00 0.00 0.00 0.00 0.00 0.00 0.00 0.00 0.00 0.00
0.02 0.02 0.02 0.01 0.01 0.01 0.01 0.01 0.01 0.01 0.01 0.01 0.01 0.01 0.01 0.01 0.01 0.01 0.01 0.01 0.00 0.00 0.00 0.00 0.00 0.01 0.01 0.00 0.00 0.00 0.00 0.00 0.00 0.00 0.00 0.00 0.00 0.00 0.00 0.00 0.00 0.00 0.00 0.00
0.02 0.02 0.02 0.01 0.00 0.01 0.01 0.02 0.01 0.00 0.01 0.01 0.01 0.01 0.01 0.01 0.01 0.01 0.01 0.01 0.01 0.01 0.00 0.00 0.00 0.01 0.01 0.01 0.01 0.00 0.00 0.00 0.01 0.01 0.01 0.01 0.01 0.00 0.00 0.00 0.00 0.00 0.00 0.00
0.02 0.02 0.01 0.01 0.00 0.00 0.02 0.02 0.01 0.00 0.00 0.00 0.01 0.01 0.01 0.01 0.01 0.01 0.01 0.01 0.01 0.01 0.01 0.00 0.00 0.00 0.01 0.02 0.02 0.01 0.01 0.01 0.01 0.02 0.02 0.02 0.02 0.01 0.01 0.01 0.01 0.01 0.00 0.00
0.02 0.02 0.02 0.01 0.00 0.01 0.01 0.00 0.00 0.00 0.00 0.00 0.00 0.00 0.00 0.00 0.01 0.01 0.01 0.01 0.01 0.01 0.01 0.01 0.00 0.00 0.01 0.01 0.02 0.02 0.02 0.02 0.03 0.03 0.02 0.02 0.02 0.03 0.02 0.02 0.01 0.01 0.01 0.00
0.02 0.02 0.01 0.01 0.01 0.01 0.01 0.00 0.00 0.00 0.00 0.00 0.00 0.00 0.00 0.00 0.01 0.01 0.01 0.01 0.01 0.01 0.01 0.01 0.01 0.01 0.01 0.00 0.01 0.02 0.02 0.03 0.03 0.03 0.02 0.02 0.02 0.02 0.02 0.02 0.02 0.01 0.01 0.01
0.01 0.01 0.01 0.01 0.00 0.00 0.00 0.00 0.00 0.00 0.00 0.00 0.00 0.00 0.00 0.00 0.00 0.01 0.01 0.01 0.01 0.01 0.01 0.01 0.01 0.01 0.01 0.01 0.00 0.01 0.02 0.02 0.03 0.03 0.03 0.02 0.02 0.02 0.02 0.01 0.01 0.01 0.01 0.01
0.01 0.01 0.00 0.00 0.00 0.00 0.00 0.00 0.00 0.00 0.00 0.00 0.00 0.00 0.00 0.00 0.00 0.01 0.01 0.01 0.01 0.01 0.01 0.01 0.01 0.01 0.01 0.01 0.01 0.00 0.01 0.01 0.01 0.02 0.02 0.02 0.01 0.02 0.02 0.01 0.01 0.01 0.01 0.01
0.01 0.01 0.01 0.00 0.00 0.00 0.00 0.00 0.00 0.00 0.00 0.00 0.00 0.00 0.00 0.00 0.00 0.01 0.01 0.01 0.01 0.01 0.01 0.01 0.01 0.01 0.01 0.01 0.01 0.01 0.00 0.00 0.00 0.00 0.01 0.01 0.01 0.01 0.01 0.01 0.01 0.01 0.01 0.01
0.01 0.01 0.00 0.00 0.00 0.00 0.00 0.00 0.00 0.00 0.00 0.00 0.00 0.00 0.00 0.00 0.01 0.01 0.01 0.01 0.01 0.01 0.01 0.01 0.01 0.01 0.01 0.01 0.01 0.01 0.01 0.00 0.00 0.00 0.00 0.00 0.00 0.01 0.01 0.01 0.01 0.01 0.01 0.01
0.00 0.00 0.00 0.00 0.00 0.00 0.00 0.00 0.00 0.00 0.00 0.00 0.01 0.00 0.00 0.01 0.01 0.01 0.01 0.01 0.01 0.01 0.01 0.01 0.02 0.02 0.02 0.02 0.01 0.01 0.01 0.01 0.01 0.01 0.01 0.01 0.01 0.01 0.01 0.01 0.01 0.01 0.01 0.01
0.00 0.00 0.00 0.00 0.00 0.00 0.00 0.00 0.00 0.00 0.00 0.00 0.00 0.00 0.00 0.01 0.01 0.01 0.01 0.01 0.01 0.01 0.01 0.01 0.02 0.02 0.02 0.02 0.02 0.01 0.01 0.01 0.01 0.01 0.01 0.01 0.01 0.01 0.01 0.01 0.01 0.01 0.01 0.01
0.00 0.00 0.00 0.00 0.00 0.00 0.00 0.00 0.01 0.01 0.01 0.01 0.00 0.00 0.00 0.00 0.01 0.01 0.01 0.01 0.01 0.01 0.01 0.01 0.02 0.02 0.02 0.02 0.01 0.01 0.01 0.01 0.01 0.01 0.01 0.01 0.01 0.01 0.01 0.01 0.01 0.01 0.01 0.02
0.00 0.00 0.00 0.00 0.00 0.00 0.00 0.00 0.01 0.01 0.01 0.01 0.01 0.01 0.00 0.00 0.01 0.01 0.01 0.01 0.02 0.02 0.02 0.02 0.02 0.01 0.01 0.01 0.01 0.01 0.01 0.01 0.01 0.01 0.01 0.01 0.01 0.01 0.01 0.01 0.01 0.01 0.01 0.02
0.00 0.00 0.00 0.00 0.00 0.00 0.00 0.00 0.01 0.01 0.01 0.01 0.01 0.01 0.01 0.01 0.01 0.01 0.01 0.01 0.02 0.02 0.02 0.02 0.01 0.01 0.01 0.00 0.01 0.01 0.01 0.01 0.01 0.01 0.01 0.01 0.01 0.01 0.01 0.01 0.01 0.01 0.01 0.02
0.00 0.00 0.00 0.00 0.00 0.00 0.00 0.00 0.01 0.01 0.01 0.01 0.01 0.01 0.01 0.01 0.01 0.01 0.01 0.01 0.01 0.02 0.02 0.02 0.02 0.01 0.01 0.01 0.01 0.01 0.01 0.01 0.01 0.01 0.02 0.02 0.02 0.01 0.01 0.02 0.02 0.02 0.02 0.02
0.00 0.00 0.00 0.00 0.00 0.00 0.00 0.00 0.00 0.01 0.01 0.01 0.01 0.01 0.01 0.01 0.01 0.01 0.01 0.01 0.02 0.02 0.02 0.02 0.01 0.01 0.01 0.01 0.01 0.01 0.02 0.01 0.01 0.01 0.01 0.01 0.02 0.02 0.02 0.02 0.02 0.02 0.02 0.02
0.00 0.00 0.00 0.00 0.00 0.00 0.00 0.00 0.00 0.01 0.01 0.01 0.01 0.01 0.02 0.02 0.02 0.02 0.02 0.02 0.02 0.02 0.01 0.01 0.01 0.01 0.01 0.01 0.01 0.01 0.01 0.02 0.02 0.02 0.02 0.02 0.02 0.02 0.02 0.02 0.02 0.02 0.02 0.02
0.00 0.00 0.00 0.00 0.00 0.00 0.00 0.00 0.00 0.01 0.01 0.01 0.01 0.01 0.02 0.02 0.02 0.02 0.02 0.02 0.02 0.02 0.01 0.01 0.01 0.02 0.01 0.01 0.01 0.01 0.01 0.01 0.02 0.02 0.02 0.02 0.02 0.02 0.02 0.02 0.01 0.01 0.01 0.01
0.00 0.00 0.00 0.00 0.00 0.00 0.00 0.00 0.00 0.01 0.01 0.01 0.01 0.01 0.02 0.02 0.02 0.02 0.02 0.02 0.02 0.02 0.01 0.01 0.02 0.02 0.02 0.01 0.01 0.01 0.01 0.01 0.02 0.02 0.01 0.01 0.01 0.01 0.02 0.01 0.01 0.01 0.01 0.01
0.00 0.00 0.00 0.00 0.00 0.00 0.00 0.00 0.01 0.01 0.01 0.01 0.01 0.01 0.02 0.02 0.02 0.01 0.01 0.01 0.01 0.01 0.01 0.02 0.02 0.02 0.02 0.01 0.01 0.01 0.01 0.01 0.01 0.01 0.01 0.01 0.01 0.01 0.01 0.01 0.01 0.01 0.01 0.01
0.00 0.00 0.00 0.00 0.00 0.00 0.01 0.01 0.01 0.01 0.01 0.01 0.01 0.01 0.02 0.02 0.01 0.01 0.01 0.01 0.01 0.01 0.01 0.02 0.02 0.02 0.01 0.01 0.01 0.01 0.01 0.01 0.01 0.01 0.01 0.01 0.01 0.01 0.01 0.02 0.02 0.02 0.01 0.01
0.00 0.00 0.00 0.00 0.00 0.01 0.01 0.01 0.01 0.01 0.01 0.01 0.01 0.02 0.02 0.01 0.01 0.01 0.01 0.01 0.01 0.01 0.01 0.01 0.01 0.01 0.01 0.01 0.01 0.01 0.01 0.01 0.01 0.01 0.02 0.02 0.02 0.02 0.02 0.02 0.01 0.01 0.01 0.01
0.00 0.00 0.00 0.01 0.01 0.01 0.01 0.01 0.01 0.01 0.01 0.01 0.02 0.02 0.02 0.01 0.01 0.01 0.01 0.01 0.01 0.01 0.01 0.01 0.01 0.01 0.01 0.02 0.02 0.02 0.02 0.02 0.01 0.01 0.01 0.02 0.02 0.02 0.02 0.02 0.02 0.01 0.01 0.01
MSLP
1010.13 1009.31 1008.56 1007.88 1007.26 1006.69 1006.18 1005.72 1005.32 1004.98 1004.72 1004.54 1004.44 1004.39 1004.36 1004.33 1004.24 1004.07 1003.79 1003.40 1002.94 1002.44 1001.97 1001.60 1001.40 1001.41 1001.67 1002.18 1002.91 1003.80 1004.78 1005.79 1006.77 1007.67 1008.46 1009.16 1009.78 1010.35 1010.92 1011.50 1012.12 1012.77 1013.45 1014.11
1010.65 1010.07 1009.57 1009.15 1008.79 1008.47 1008.18 1007.91 1007.66 1007.44 1007.25 1007.10 1006.99 1006.89 1006.78 1006.63 1006.41 1006.07 1005.62 1005.05 1004.39 1003.69 1003.01 1002.44 1002.04 1001.87 1001.95 1002.31 1002.91 1003.70 1004.62 1005.59 1006.56 1007.46 1008.28 1008.99 1009.63 1010.21 1010.77 1011.33 1011.91 1012.52 1013.15 1013.78
1011.32 1010.98 1010.76 1010.61 1010.52 1010.44 1010.36 1010.26 1010.13 1009.98 1009.80 1009.62 1009.42 1009.21 1008.96 1008.66 1008.28 1007.79 1007.19 1006.48 1005.69 1004.86 1004.06 1003.36 1002.82 1002.51 1002.47 1002.69 1003.17 1003.86 1004.69 1005.60 1006.52 1007.41 1008.23 1008.96 1009.61 1010.20 1010.76 1011.31 1011.86 1012.44 1013.03 1013.63
1012.19 1012.08 1012.10 1012.21 1012.36 1012.50 1012.60 1012.62 1012.56 1012.41 1012.19 1011.90 1011.56 1011.18 1010.76 1010.28 1009.74 1009.12 1008.41 1007.61 1006.76 1005.88 1005.04 1004.29 1003.70 1003.31 1003.18 1003.30 1003.67 1004.25 1004.99 1005.82 1006.70 1007.55 1008.36 1009.09 1009.76 1010.36 1010.92 1011.46 1012.01 1012.56 1013.13 1013.70
1013.26 1013.34 1013.56 1013.87 1014.21 1014.52 1014.74 1014.84 1014.80 1014.61 1014.29 1013.86 1013.34 1012.77 1012.15 1011.50 1010.81 1010.07 1009.29 1008.46 1007.60 1006.75 1005.93 1005.20 1004.62 1004.22 1004.03 1004.09 1004.38 1004.87 1005.51 1006.27 1007.08 1007.89 1008.68 1009.41 1010.09 1010.70 1011.28 1011.82 1012.36 1012.90 1013.44 1013.98
1014.48 1014.69 1015.05 1015.51 1015.98 1016.40 1016.69 1016.82 1016.75 1016.49 1016.05 1015.46 1014.76 1013.99 1013.19 1012.37 1011.56 1010.74 1009.92 1009.10 1008.29 1007.50 1006.76 1006.10 1005.57 1005.19 1005.00 1005.03 1005.25 1005.66 1006.23 1006.91 1007.66 1008.43 1009.19 1009.92 1010.60 1011.23 1011.82 1012.38 1012.91 1013.44 1013.96 1014.47
1015.76 1016.06 1016.50 1017.04 1017.59 1018.06 1018.38 1018.50 1018.38 1018.03 1017.47 1016.73 1015.86 1014.93 1013.97 1013.03 1012.12 1011.25 1010.42 1009.64 1008.90 1008.21 1007.57 1007.01 1006.55 1006.22 1006.06 1006.06 1006.25 1006.60 1007.10 1007.72 1008.41 1009.14 1009.89 1010.61 1011.30 1011.94 1012.54 1013.10 1013.64 1014.14 1014.64 1015.11
1017.02 1017.36 1017.85 1018.42 1018.99 1019.46 1019.77 1019.84 1019.67 1019.23 1018.57 1017.71 1016.72 1015.67 1014.60 1013.57 1012.61 1011.72 1010.92 1010.19 1009.53 1008.94 1008.41 1007.94 1007.57 1007.30 1007.16 1007.17 1007.34 1007.65 1008.09 1008.66 1009.31 1010.01 1010.73 1011.44 1012.13 1012.79 1013.39 1013.96 1014.48 1014.97 1015.42 1015.85
1018.18 1018.53 1019.03 1019.59 1020.14 1020.58 1020.84 1020.87 1020.63 1020.13 1019.38 1018.45 1017.39 1016.27 1015.16 1014.10 1013.12 1012.25 1011.49 1010.82 1010.25 1009.74 1009.30 1008.93 1008.63 1008.42 1008.31 1008.33 1008.48 1008.76 1009.17 1009.69 1010.30 1010.98 1011.68 1012.39 1013.08 1013.73 1014.33 1014.89 1015.39 1015.84 1016.25 1016.63
1019.21 1019.57 1020.05 1020.58 1021.07 1021.45 1021.64 1021.60 1021.30 1020.75 1019.96 1019.00 1017.92 1016.80 1015.69 1014.64 1013.70 1012.87 1012.16 1011.57 1011.06 1010.64 1010.28 1009.97 1009.73 1009.56 1009.48 1009.50 1009.64 1009.90 1010.29 1010.78 1011.36 1012.01 1012.70 1013.39 1014.07 1014.71 1015.30 1015.83 1016.30 1016.71 1017.07 1017.39
1020.15 1020.51 1020.95 1021.41 1021.82 1022.11 1022.22 1022.10 1021.74 1021.15 1020.35 1019.40 1018.34 1017.26 1016.20 1015.22 1014.34 1013.58 1012.94 1012.41 1011.97 1011.61 1011.30 1011.05 1010.84 1010.70 1010.64 1010.67 1010.80 1011.05 1011.42 1011.88 1012.44 1013.07 1013.73 1014.40 1015.06 1015.67 1016.24 1016.73 1017.16 1017.53 1017.83 1018.08
1021.06 1021.41 1021.80 1022.18 1022.48 1022.65 1022.65 1022.44 1022.02 1021.39 1020.60 1019.67 1018.67 1017.66 1016.69 1015.80 1015.01 1014.34 1013.78 1013.32 1012.94 1012.62 1012.36 1012.14 1011.96 1011.84 1011.78 1011.81 1011.95 1012.19 1012.53 1012.98 1013.51 1014.11 1014.74 1015.38 1016.00 1016.58 1017.11 1017.56 1017.94 1018.26 1018.50 1018.70
1022.03 1022.36 1022.68 1022.95 1023.13 1023.17 1023.04 1022.72 1022.22 1021.56 1020.76 1019.87 1018.95 1018.03 1017.17 1016.38 1015.70 1015.12 1014.64 1014.24 1013.92 1013.64 1013.41 1013.21 1013.05 1012.94 1012.89 1012.93 1013.06 1013.28 1013.62 1014.04 1014.55 1015.11 1015.70 1016.30 1016.88 1017.41 1017.89 1018.29 1018.63 1018.89 1019.09 1019.25
1023.10 1023.40 1023.64 1023.79 1023.82 1023.71 1023.43 1023.00 1022.41 1021.70 1020.90 1020.05 1019.20 1018.38 1017.62 1016.95 1016.37 1015.89 1015.49 1015.16 1014.88 1014.64 1014.43 1014.25 1014.10 1014.00 1013.96 1014.00 1014.12 1014.34 1014.66 1015.06 1015.53 1016.06 1016.61 1017.16 1017.68 1018.16 1018.59 1018.94 1019.23 1019.46 1019.62 1019.75
1024.26 1024.51 1024.66 1024.68 1024.56 1024.28 1023.86 1023.30 1022.62 1021.86 1021.05 1020.24 1019.45 1018.72 1018.06 1017.50 1017.03 1016.64 1016.31 1016.04 1015.81 1015.60 1015.42 1015.25 1015.12 1015.03 1014.99 1015.03 1015.15 1015.36 1015.66 1016.03 1016.47 1016.95 1017.45 1017.95 1018.42 1018.85 1019.22 1019.53 1019.79 1019.98 1020.13 1020.24
1025.45 1025.64 1025.68 1025.57 1025.30 1024.87 1024.30 1023.61 1022.85 1022.04 1021.23 1020.45 1019.72 1019.08 1018.52 1018.05 1017.68 1017.37 1017.11 1016.90 1016.71 1016.53 1016.37 1016.22 1016.10 1016.02 1015.99 1016.03 1016.15 1016.35 1016.62 1016.97 1017.37 1017.80 1018.25 1018.69 1019.10 1019.48 1019.81 1020.09 1020.32 1020.50 1020.64 1020.75
1026.54 1026.65 1026.59 1026.35 1025.94 1025.37 1024.68 1023.90 1023.07 1022.23 1021.43 1020.68 1020.01 1019.45 1018.98 1018.61 1018.32 1018.09 1017.89 1017.73 1017.58 1017.43 1017.28 1017.15 1017.04 1016.97 1016.95 1017.00 1017.11 1017.30 1017.55 1017.87 1018.22 1018.61 1019.01 1019.40 1019.76 1020.10 1020.39 1020.65 1020.87 1021.05 1021.19 1021.31
1027.39 1027.43 1027.27 1026.92 1026.39 1025.71 1024.93 1024.08 1023.22 1022.38 1021.59 1020.90 1020.31 1019.83 1019.45 1019.16 1018.95 1018.79 1018.65 1018.53 1018.41 1018.29 1018.16 1018.05 1017.96 1017.90 1017.89 1017.93 1018.04 1018.22 1018.45 1018.74 1019.06 1019.40 1019.75 1020.09 1020.42 1020.71 1020.99 1021.23 1021.44 1021.62 1021.78 1021.92
1027.89 1027.84 1027.59 1027.15 1026.54 1025.80 1024.97 1024.10 1023.24 1022.43 1021.70 1021.07 1020.57 1020.18 1019.89 1019.69 1019.55 1019.45 1019.37 1019.29 1019.21 1019.11 1019.01 1018.91 1018.84 1018.79 1018.79 1018.84 1018.95 1019.11 1019.33 1019.59 1019.87 1020.17 1020.48 1020.78 1021.07 1021.34 1021.60 1021.83 1022.04 1022.23 1022.40 1022.56
1027.98 1027.86 1027.53 1027.03 1026.37 1025.60 1024.76 1023.91 1023.09 1022.35 1021.70 1021.17 1020.77 1020.48 1020.29 1020.17 1020.11 1020.07 1020.04 1020.00 1019.95 1019.88 1019.81 1019.73 1019.68 1019.65 1019.66 1019.72 1019.83 1019.98 1020.18 1020.41 1020.67 1020.94 1021.21 1021.48 1021.74 1021.98 1022.22 1022.44 1022.65 1022.85 1023.03 1023.19
1027.71 1027.52 1027.14 1026.60 1025.92 1025.15 1024.35 1023.56 1022.81 1022.16 1021.62 1021.20 1020.90 1020.72 1020.62 1020.59 1020.60 1020.63 1020.65 1020.66 1020.64 1020.60 1020.55 1020.51 1020.47 1020.46 1020.49 1020.56 1020.67 1020.82 1021.01 1021.22 1021.45 1021.69 1021.93 1022.17 1022.40 1022.63 1022.85 1023.06 1023.26 1023.46 1023.64 1023.79
1027.19 1026.94 1026.52 1025.96 1025.29 1024.56 1023.81 1023.10 1022.45 1021.91 1021.48 1021.18 1021.00 1020.92 1020.92 1020.97 1021.05 1021.14 1021.21 1021.26 1021.27 1021.27 1021.25 1021.23 1021.22 1021.23 1021.28 1021.36 1021.47 1021.62 1021.80 1022.00 1022.21 1022.42 1022.64 1022.85 1023.06 1023.26 1023.46 1023.66 1023.85 1024.04 1024.20 1024.34
1026.56 1026.26 1025.82 1025.26 1024.61 1023.94 1023.27 1022.65 1022.11 1021.68 1021.37 1021.18 1021.11 1021.13 1021.21 1021.34 1021.48 1021.62 1021.73 1021.82 1021.87 1021.90 1021.91 1021.92 1021.94 1021.97 1022.03 1022.12 1022.24 1022.39 1022.56 1022.74 1022.94 1023.13 1023.32 1023.51 1023.69 1023.88 1024.06 1024.23 1024.41 1024.57 1024.71 1024.82
1025.96 1025.63 1025.18 1024.63 1024.03 1023.42 1022.83 1022.31 1021.88 1021.56 1021.36 1021.27 1021.29 1021.40 1021.55 1021.74 1021.93 1022.11 1022.26 1022.38 1022.46 1022.52 1022.55 1022.59 1022.63 1022.68 1022.75 1022.86 1022.98 1023.13 1023.29 1023.46 1023.63 1023.81 1023.98 1024.14 1024.30 1024.46 1024.62 1024.77 1024.92 1025.05 1025.16 1025.24
1025.51 1025.16 1024.71 1024.19 1023.64 1023.10 1022.60 1022.17 1021.84 1021.62 1021.51 1021.51 1021.61 1021.77 1021.98 1022.21 1022.43 1022.64 1022.82 1022.95 1023.06 1023.14 1023.19 1023.25 1023.30 1023.37 1023.45 1023.56 1023.69 1023.83 1023.98 1024.14 1024.29 1024.45 1024.60 1024.74 1024.88 1025.02 1025.15 1025.28 1025.40 1025.50 1025.58 1025.63
1025.25 1024.90 1024.46 1023.98 1023.49 1023.02 1022.60 1022.26 1022.02 1021.89 1021.86 1021.92 1022.07 1022.27 1022.52 1022.77 1023.01 1023.23 1023.42 1023.57 1023.68 1023.77 1023.84 1023.90 1023.97 1024.04 1024.13 1024.24 1024.36 1024.49 1024.63 1024.77 1024.91 1025.05 1025.18 1025.30 1025.42 1025.54 1025.65 1025.75 1025.84 1025.92 1025.97 1025.99
1025.17 1024.83 1024.43 1024.00 1023.57 1023.17 1022.84 1022.58 1022.41 1022.34 1022.37 1022.48 1022.66 1022.89 1023.14 1023.40 1023.64 1023.86 1024.05 1024.20 1024.31 1024.40 1024.48 1024.54 1024.61 1024.69 1024.77 1024.87 1024.99 1025.11 1025.24 1025.37 1025.49 1025.61 1025.72 1025.83 1025.93 1026.03 1026.12 1026.20 1026.27 1026.32 1026.35 1026.34
Thickness
5446 5454 5456 5456 5457 5461 5462 5464 5464 5472 5473 5475 5476 5476 5477 5478 5479 5480 5480 5481 5484 5485 5487 5489 5491 5494 5496 5498 5500 5503 5505 5507 5509 5512 5514 5516 5519 5521 5523 5525 5527 5528 5530 5530
5441 5452 5453 5451 5452 5456 5457 5460 5462 5464 5465 5468 5469 5469 5468 5467 5468 5469 5470 5472 5474 5476 5478 5479 5481 5483 5486 5488 5490 5493 5495 5497 5500 5502 5504 5506 5509 5511 5512 5514 5516 5518 5520 5521
5434 5447 5447 5437 5445 5448 5449 5451 5455 5454 5456 5459 5457 5458 5457 5456 5457 5459 5460 5462 5463 5465 5467 5469 5471 5473 5476 5478 5481 5483 5485 5488 5490 5491 5493 5495 5498 5500 5502 5504 5506 5508 5510 5511
5424 5429 5421 5436 5445 5447 5444 5441 5444 5446 5446 5448 5447 5447 5447 5447 5446 5447 5450 5452 5454 5456 5457 5459 5462 5464 5467 5469 5471 5473 5475 5477 5479 5481 5483 5485 5488 5490 5492 5494 5496 5498 5500 5502
5414 5414 5425 5437 5437 5435 5433 5430 5432 5434 5436 5437 5439 5441 5438 5438 5438 5439 5441 5442 5444 5446 5448 5450 5453 5456 5458 5459 5461 5463 5465 5467 5468 5470 5473 5475 5477 5480 5482 5484 5486 5488 5491 5492
5410 5409 5414 5423 5425 5429 5427 5419 5424 5427 5425 5426 5428 5426 5426 5428 5429 5430 5432 5433 5435 5437 5440 5441 5444 5446 5448 5449 5451 5453 5455 5457 5459 5461 5463 5465 5468 5470 5472 5475 5477 5479 5481 5482
5401 5400 5408 5412 5416 5421 5411 5409 5415 5418 5416 5414 5413 5412 5415 5418 5419 5420 5422 5424 5426 5427 5429 5432 5434 5437 5438 5439 5441 5443 5445 5447 5449 5452 5454 5456 5458 5460 5462 5465 5467 5469 5471 5473
5397 5395 5398 5405 5406 5402 5399 5405 5407 5407 5406 5404 5405 5406 5408 5408 5409 5410 5411 5413 5415 5416 5419 5422 5424 5426 5427 5429 5431 5434 5436 5438 5440 5442 5444 5447 5449 5451 5453 5455 5457 5459 5461 5462
5393 5393 5398 5398 5395 5395 5396 5396 5397 5396 5396 5396 5396 5396 5397 5398 5399 5400 5402 5403 5405 5407 5409 5411 5414 5415 5416 5419 5421 5424 5426 5427 5430 5432 5434 5437 5439 5441 5443 5445 5447 5449 5450 5452
5390 5392 5394 5391 5389 5389 5388 5387 5387 5387 5386 5386 5385 5386 5387 5388 5388 5389 5391 5393 5396 5398 5399 5401 5404 5405 5406 5409 5412 5414 5415 5417 5420 5422 5424 5427 5429 5431 5433 5435 5437 5439 5440 5442
5382 5385 5385 5385 5381 5380 5380 5378 5377 5377 5376 5376 5376 5377 5377 5378 5378 5379 5382 5383 5386 5387 5389 5391 5393 5395 5397 5399 5401 5403 5405 5407 5410 5412 5414 5417 5419 5420 5422 5425 5427 5429 5431 5433
5376 5377 5375 5374 5373 5372 5369 5367 5366 5365 5365 5365 5366 5366 5367 5368 5369 5370 5372 5374 5375 5377 5379 5381 5383 5385 5387 5389 5391 5393 5396 5398 5400 5402 5404 5406 5408 5410 5412 5414 5417 5420 5422 5424
5371 5371 5368 5367 5364 5362 5359 5358 5356 5355 5354 5354 5355 5356 5357 5358 5359 5361 5363 5364 5366 5368 5369 5371 5373 5375 5378 5380 5382 5384 5386 5388 5390 5392 5394 5396 5399 5401 5402 5404 5407 5410 5413 5416
5363 5361 5358 5357 5354 5352 5350 5349 5347 5347 5346 5345 5345 5346 5346 5348 5349 5351 5353 5355 5357 5359 5360 5362 5364 5366 5369 5371 5373 5375 5377 5379 5381 5383 5385 5387 5390 5392 5393 5395 5397 5399 5402 5406
5354 5352 5348 5347 5345 5343 5341 5339 5338 5337 5337 5337 5336 5336 5337 5338 5339 5341 5343 5346 5348 5349 5351 5353 5355 5357 5360 5362 5364 5367 5368 5370 5372 5374 5376 5378 5381 5383 5384 5386 5388 5390 5392 5395
5345 5343 5341 5339 5336 5334 5332 5330 5328 5328 5327 5327 5326 5327 5327 5328 5330 5332 5334 5336 5338 5340 5342 5344 5346 5349 5351 5354 5356 5358 5360 5363 5365 5366 5367 5369 5371 5373 5375 5377 5379 5381 5384 5386
5335 5333 5331 5329 5327 5326 5324 5322 5320 5319 5318 5318 5317 5318 5318 5319 5321 5322 5324 5327 5328 5331 5333 5336 5338 5341 5344 5346 5348 5350 5352 5354 5357 5358 5359 5361 5363 5365 5367 5368 5370 5372 5375 5378
5329 5326 5324 5321 5318 5316 5315 5314 5312 5311 5310 5310 5309 5309 5309 5310 5311 5313 5315 5317 5319 5322 5325 5328 5331 5334 5336 5339 5341 5343 5345 5347 5349 5351 5353 5355 5356 5358 5359 5360 5362 5364 5367 5370
5321 5319 5316 5314 5311 5308 5306 5305 5304 5303 5302 5301 5300 5300 5300 5301 5303 5304 5306 5308 5310 5313 5317 5320 5324 5326 5329 5331 5334 5336 5338 5340 5343 5345 5346 5349 5350 5351 5352 5353 5355 5357 5359 5362
5313 5310 5307 5305 5303 5300 5298 5297 5295 5294 5293 5293 5292 5291 5292 5293 5294 5295 5297 5299 5301 5304 5308 5311 5315 5317 5320 5323 5327 5329 5331 5334 5336 5338 5339 5341 5343 5344 5345 5347 5348 5350 5352 5354
5304 5302 5299 5296 5294 5293 5291 5289 5287 5286 5285 5284 5283 5283 5283 5284 5285 5287 5288 5291 5294 5297 5300 5304 5307 5310 5313 5316 5319 5322 5324 5326 5328 5330 5332 5334 5336 5337 5339 5340 5341 5343 5345 5347
5296 5293 5291 5288 5286 5284 5282 5281 5279 5278 5277 5276 5276 5275 5275 5277 5278 5280 5282 5283 5287 5290 5293 5296 5299 5303 5306 5309 5312 5314 5316 5319 5321 5323 5325 5327 5329 5330 5332 5333 5334 5336 5338 5339
5288 5285 5282 5279 5277 5275 5274 5272 5271 5270 5270 5269 5268 5268 5269 5270 5272 5273 5276 5278 5280 5283 5286 5289 5292 5297 5300 5302 5305 5307 5309 5312 5314 5316 5318 5320 5322 5324 5325 5326 5328 5329 5330 5332
5280 5277 5274 5271 5268 5266 5265 5265 5264 5264 5263 5263 5263 5263 5263 5264 5266 5267 5270 5272 5274 5277 5280 5283 5286 5290 5293 5295 5297 5300 5302 5305 5307 5309 5312 5314 5316 5317 5319 5320 5321 5323 5324 5326
5271 5268 5265 5262 5260 5260 5259 5258 5257 5256 5256 5256 5257 5257 5258 5259 5260 5262 5263 5265 5268 5271 5274 5277 5280 5283 5285 5287 5290 5292 5295 5297 5300 5302 5305 5307 5309 5311 5312 5313 5315 5317 5318 5320
5263 5261 5259 5256 5254 5253 5252 5251 5250 5250 5250 5251 5251 5251 5252 5253 5254 5255 5257 5259 5261 5264 5267 5269 5272 5275 5277 5280 5283 5285 5287 5290 5292 5295 5298 5300 5302 5304 5305 5307 5309 5311 5312 5314
5257 5255 5252 5250 5249 5248 5247 5245 5244 5244 5244 5245 5245 5245 5246 5247 5247 5249 5250 5253 5255 5257 5260 5263 5265 5268 5271 5273 5276 5278 5281 5283 5285 5288 5290 5293 5295 5297 5299 5301 5302 5304 5306 5307